Вернуться в каталог

STARLINK-4780

АктивенСвязьVLEO
NORAD 53848·PAYLOAD·🇺🇸 United States

Запущен Sep 19, 2022 с Cape Canaveral Space Force Station

Loading…

Ближайшие Пролёты (ближайшие 24 часа)

TLE

СвежийSource: CelesTrak SupGP

Эпоха: Sep 14, 2026, 21:32 UTC

1 53848C 22114AG  26257.89770833 -.00128560  00000+0 -80615-2 0  2577
2 53848  53.1583 163.8384 0001501  94.9045 110.4195 15.08903046    14

Отслеживайте STARLINK-4780 в реальном времени с AllMySat

Download on the App Store